Location: Newark
(40.2401°N, 1.4101°W)
Time: 10:05:25
(UTC+00:00)

ISS - Visible Passes

Search period start: 22 March 2019 00:00
Search period end: 01 April 2019 00:00
Orbit: 406 x 411 km, 51.6° (Epoch: 22 March)

Date Brightness Start Highest point End Pass type
(mag) Time Alt. Az. Time Alt. Az. Time Alt. Az.
22 Mar -2.7 20:10:02 10° WSW 20:13:10 40° NNW 20:13:32 38° NNW visible
23 Mar -3.6 19:18:48 10° WSW 19:22:05 71° NW 19:25:12 11° NE visible
23 Mar -0.6 20:56:54 10° WNW 20:57:58 14° NW 20:57:58 14° NW visible
24 Mar -1.5 20:05:12 10° WNW 20:07:51 22° NNW 20:09:26 16° NNE visible
25 Mar -2.1 19:13:37 10° W 19:16:37 32° NNW 19:19:38 10° NE visible
25 Mar -0.7 20:52:26 10° NW 20:53:29 12° NNW 20:53:29 12° NNW visible
26 Mar -1.0 20:00:37 10° NW 20:02:36 15° NNW 20:04:35 10° NNE visible
27 Mar -1.3 19:08:49 10° WNW 19:11:16 19° NNW 19:13:43 10° NNE visible
27 Mar -0.7 20:47:39 10° NNW 20:48:29 11° N 20:48:29 11° N visible
28 Mar -1.0 19:56:04 10° NNW 19:57:25 12° N 19:58:47 10° NNE visible
29 Mar -1.1 19:04:14 10° NW 19:06:00 14° NNW 19:07:46 10° NNE visible
29 Mar -0.9 20:42:05 10° NNW 20:43:10 12° N 20:43:10 12° N visible
30 Mar -1.0 19:50:58 10° NNW 19:52:13 12° N 19:53:29 10° NNE visible
31 Mar -1.1 18:59:31 10° NNW 19:00:46 12° N 19:02:00 10° NNE visible
31 Mar -1.3 20:36:06 10° NNW 20:37:42 16° N 20:37:42 16° N visible
